Location: Dammartin
(48.9032°N, 1.6195°E)
Time: 21:38:22
(UTC+00:00)

USA 290 - Pass Details

Date: 03 February 2023
Orbit: 401 x 409 km, 73.6° (Epoch: 13 March)

Event Time Altitude Azimuth Distance (km) Brightness Sun altitude
Rises 17:27:30 0° 210° (SSW) 2,339 6.9 -6.0°
Reaches altitude 10° 17:29:32 10° 214° (SW) 1,485 5.9 -6.3°
Maximum altitude 17:32:46 61° 296° (WNW) 478 2.8 -6.8°
Drops below altitude 10° 17:36:03 10° 18° (NNE) 1,506 4.7 -7.3°
Enters shadow 17:38:16 - 22° (NNE) 2,432 5.8 -7.7°
